TimeEDT,TemperatureF,Dew PointF,Humidity,Sea Level PressureIn,VisibilityMPH,Wind Direction,Wind SpeedMPH,Gust SpeedMPH,PrecipitationIn,Events,Conditions,WindDirDegrees,DateUTC
12:15 AM,61.2,51.1,69,30.01,10.0,NE,6.9,-,N/A,,Clear,50,2013-07-25 04:15:00
12:35 AM,60.1,51.1,72,30.02,10.0,NE,6.9,-,N/A,,Clear,40,2013-07-25 04:35:00
12:55 AM,59.4,50.9,74,30.03,10.0,NE,6.9,-,N/A,,Clear,40,2013-07-25 04:55:00
1:15 AM,59.4,50.5,73,30.02,10.0,NE,8.1,-,N/A,,Clear,40,2013-07-25 05:15:00
1:35 AM,59.0,50.2,73,30.03,10.0,NE,6.9,-,N/A,,Clear,40,2013-07-25 05:35:00
1:55 AM,58.5,50.4,74,30.03,10.0,NNE,6.9,-,N/A,,Clear,30,2013-07-25 05:55:00
2:15 AM,59.0,50.4,73,30.03,10.0,NE,6.9,-,N/A,,Clear,40,2013-07-25 06:15:00
2:35 AM,58.1,50.2,75,30.03,10.0,ENE,3.5,-,N/A,,Clear,60,2013-07-25 06:35:00
2:55 AM,57.6,50.2,76,30.02,10.0,Calm,Calm,-,N/A,,Clear,0,2013-07-25 06:55:00
3:15 AM,58.1,50.2,75,30.02,10.0,Calm,Calm,-,N/A,,Clear,0,2013-07-25 07:15:00
3:35 AM,57.9,50.2,75,30.02,10.0,Calm,Calm,-,N/A,,Clear,0,2013-07-25 07:35:00
3:55 AM,58.3,50.2,74,30.03,10.0,NNE,3.5,-,N/A,,Clear,20,2013-07-25 07:55:00
4:15 AM,57.9,50.0,75,30.03,10.0,NE,4.6,-,N/A,,Clear,40,2013-07-25 08:15:00
4:35 AM,56.7,49.8,78,30.03,10.0,NE,5.8,-,N/A,,Clear,40,2013-07-25 08:35:00
4:55 AM,55.9,49.5,79,30.03,10.0,NNE,4.6,-,N/A,,Clear,20,2013-07-25 08:55:00
5:15 AM,56.3,49.8,79,30.03,10.0,North,5.8,-,N/A,,Clear,10,2013-07-25 09:15:00
5:35 AM,56.7,50.0,78,30.03,10.0,North,4.6,-,N/A,,Clear,360,2013-07-25 09:35:00
5:55 AM,56.7,49.6,77,30.03,10.0,North,6.9,-,N/A,,Clear,10,2013-07-25 09:55:00
6:15 AM,56.7,49.6,77,30.04,10.0,North,6.9,-,N/A,,Clear,10,2013-07-25 10:15:00
6:35 AM,56.3,49.6,78,30.04,10.0,NNE,5.8,-,N/A,,Clear,20,2013-07-25 10:35:00
6:55 AM,55.8,49.6,80,30.04,10.0,NNE,3.5,-,N/A,,Clear,20,2013-07-25 10:55:00
7:15 AM,56.5,50.0,79,30.05,10.0,NNE,5.8,-,N/A,,Clear,30,2013-07-25 11:15:00
7:35 AM,58.1,50.7,76,30.05,10.0,NNE,4.6,-,N/A,,Clear,20,2013-07-25 11:35:00
7:55 AM,59.4,50.7,73,30.06,10.0,North,5.8,-,N/A,,Clear,10,2013-07-25 11:55:00
8:15 AM,60.6,51.1,71,30.06,10.0,NE,5.8,-,N/A,,Clear,50,2013-07-25 12:15:00
8:35 AM,61.7,50.7,67,30.07,10.0,NE,5.8,-,N/A,,Clear,40,2013-07-25 12:35:00
8:55 AM,63.3,50.5,63,30.08,10.0,NE,5.8,-,N/A,,Clear,40,2013-07-25 12:55:00
9:15 AM,65.1,50.2,58,30.07,10.0,NE,8.1,-,N/A,,Clear,40,2013-07-25 13:15:00
9:35 AM,66.0,50.4,57,30.08,10.0,NE,5.8,-,N/A,,Clear,40,2013-07-25 13:35:00
9:55 AM,67.1,49.3,53,30.07,10.0,ENE,5.8,-,N/A,,Clear,60,2013-07-25 13:55:00
10:15 AM,68.0,48.6,50,30.07,10.0,ENE,5.8,-,N/A,,Clear,60,2013-07-25 14:15:00
10:35 AM,69.1,45.3,42,30.07,10.0,NE,8.1,-,N/A,,Clear,50,2013-07-25 14:35:00
10:55 AM,70.0,45.0,41,30.07,10.0,ENE,10.4,-,N/A,,Clear,60,2013-07-25 14:55:00
11:15 AM,70.5,44.2,39,30.07,10.0,NE,6.9,-,N/A,,Clear,50,2013-07-25 15:15:00
11:35 AM,71.4,44.2,38,30.07,10.0,ENE,8.1,-,N/A,,Clear,60,2013-07-25 15:35:00
11:55 AM,72.1,44.4,37,30.08,10.0,NE,9.2,-,N/A,,Clear,50,2013-07-25 15:55:00
12:15 PM,72.7,43.9,36,30.08,10.0,NNE,9.2,-,N/A,,Clear,20,2013-07-25 16:15:00
12:35 PM,73.4,43.7,34,30.07,10.0,NNE,10.4,-,N/A,,Clear,20,2013-07-25 16:35:00
12:55 PM,73.8,44.1,34,30.07,10.0,North,8.1,-,N/A,,Clear,10,2013-07-25 16:55:00
1:15 PM,74.5,45.1,35,30.07,10.0,North,5.8,-,N/A,,Clear,360,2013-07-25 17:15:00
1:35 PM,74.8,43.7,33,30.06,10.0,NNE,4.6,-,N/A,,Clear,20,2013-07-25 17:35:00
1:55 PM,75.6,43.5,32,30.07,10.0,NNE,5.8,-,N/A,,Clear,20,2013-07-25 17:55:00
2:15 PM,75.9,43.7,32,30.07,10.0,ENE,4.6,-,N/A,,Clear,60,2013-07-25 18:15:00
2:35 PM,76.1,43.2,31,30.06,10.0,NNW,4.6,-,N/A,,Clear,330,2013-07-25 18:35:00
2:55 PM,77.2,43.2,30,30.06,10.0,NNW,6.9,-,N/A,,Clear,330,2013-07-25 18:55:00
3:15 PM,77.2,41.7,28,30.06,10.0,North,8.1,-,N/A,,Clear,360,2013-07-25 19:15:00
3:35 PM,77.5,42.8,29,30.06,10.0,NE,8.1,-,N/A,,Clear,40,2013-07-25 19:35:00
3:55 PM,77.9,44.4,30,30.06,10.0,NNE,8.1,-,N/A,,Clear,30,2013-07-25 19:55:00
4:15 PM,78.4,43.0,28,30.06,10.0,NE,4.6,-,N/A,,Clear,40,2013-07-25 20:15:00
4:35 PM,78.6,43.2,28,30.06,10.0,Calm,Calm,-,N/A,,Clear,0,2013-07-25 20:35:00
4:55 PM,78.4,44.2,30,30.07,10.0,NE,5.8,-,N/A,,Clear,40,2013-07-25 20:55:00
5:15 PM,79.0,45.5,31,30.06,10.0,NNE,8.1,-,N/A,,Clear,20,2013-07-25 21:15:00
5:35 PM,78.8,47.3,33,30.06,10.0,East,5.8,-,N/A,,Clear,90,2013-07-25 21:35:00
5:55 PM,78.6,45.3,31,30.06,10.0,Calm,Calm,-,N/A,,Clear,0,2013-07-25 21:55:00
6:15 PM,78.6,45.5,31,30.05,10.0,ENE,9.2,-,N/A,,Clear,70,2013-07-25 22:15:00
6:35 PM,78.3,47.1,33,30.05,10.0,East,6.9,-,N/A,,Clear,80,2013-07-25 22:35:00
6:55 PM,77.7,47.8,35,30.05,10.0,ENE,6.9,-,N/A,,Clear,70,2013-07-25 22:55:00
7:15 PM,77.2,48.4,36,30.06,10.0,East,4.6,-,N/A,,Clear,80,2013-07-25 23:15:00
7:35 PM,76.5,48.9,38,30.06,10.0,East,5.8,-,N/A,,Clear,80,2013-07-25 23:35:00
7:55 PM,75.4,51.3,43,30.06,10.0,ESE,3.5,-,N/A,,Clear,110,2013-07-25 23:55:00
8:15 PM,73.9,53.2,48,30.06,10.0,ESE,3.5,-,N/A,,Clear,110,2013-07-26 00:15:00
8:35 PM,72.5,54.0,52,30.06,10.0,Calm,Calm,-,N/A,,Clear,0,2013-07-26 00:35:00
8:55 PM,72.0,52.7,51,30.06,10.0,Calm,Calm,-,N/A,,Clear,0,2013-07-26 00:55:00
9:15 PM,71.1,53.6,54,30.07,10.0,Calm,Calm,-,N/A,,Clear,0,2013-07-26 01:15:00
9:35 PM,71.2,52.3,51,30.08,10.0,Calm,Calm,-,N/A,,Clear,0,2013-07-26 01:35:00
9:55 PM,68.9,54.9,61,30.08,10.0,Calm,Calm,-,N/A,,Clear,0,2013-07-26 01:55:00
10:15 PM,68.4,54.9,62,30.08,10.0,Calm,Calm,-,N/A,,Clear,0,2013-07-26 02:15:00
10:35 PM,66.4,55.2,67,30.09,10.0,Calm,Calm,-,N/A,,Clear,0,2013-07-26 02:35:00
10:55 PM,65.7,55.4,69,30.09,10.0,Calm,Calm,-,N/A,,Clear,0,2013-07-26 02:55:00
11:15 PM,65.8,54.7,67,30.09,10.0,Calm,Calm,-,N/A,,Clear,0,2013-07-26 03:15:00
11:35 PM,64.9,54.7,69,30.08,10.0,Calm,Calm,-,N/A,,Clear,0,2013-07-26 03:35:00
11:55 PM,63.0,55.2,76,30.09,10.0,Calm,Calm,-,N/A,,Clear,0,2013-07-26 03:55:00